Location: 81360 Arifat, France
(43.7204°N, 2.3408°E)
Time: 23:15:24
(UTC+01:00)

Tiangong - Visible Passes

Search period start: 09 February 2026 00:00
Search period end: 19 February 2026 00:00
Orbit: 386 x 393 km, 41.5° (Epoch: 9 February)

Date Brightness Start Highest point End Pass type
(mag) Time Alt. Az. Time Alt. Az. Time Alt. Az.
9 Feb 1.0 20:32:08 10° SW 20:32:14 11° SW 20:32:14 11° SW visible
10 Feb -0.2 19:34:37 10° SSW 19:36:51 18° SSE 19:37:07 18° SSE visible
11 Feb -0.4 20:12:20 10° SW 20:14:13 27° SSW 20:14:13 27° SSW visible
12 Feb -0.7 19:14:26 10° SW 19:17:11 27° SSE 19:18:54 17° ESE visible
12 Feb 1.1 20:50:43 10° WSW 20:51:13 14° WSW 20:51:13 14° WSW visible
13 Feb -1.7 19:52:34 10° WSW 19:55:38 49° S 19:55:50 48° SSE visible
14 Feb -1.2 18:54:27 10° SW 18:57:26 39° SSE 19:00:23 10° E visible
14 Feb 0.0 20:31:02 10° W 20:32:42 27° WSW 20:32:42 27° WSW visible
15 Feb -1.8 19:32:46 10° WSW 19:35:53 56° S 19:37:13 29° ESE visible
16 Feb -1.4 20:11:15 10° W 20:14:00 47° SSW 20:14:00 47° SSW visible
17 Feb -1.7 19:12:53 10° W 19:16:00 56° S 19:18:29 15° ESE visible
17 Feb 0.8 20:49:52 10° W 20:50:47 16° WSW 20:50:47 16° WSW visible
18 Feb -1.1 19:51:21 10° W 19:54:21 38° SSW 19:55:17 30° SSE visible
